Stündliche Wetter Jumabozor

Heute, 8 März, Montag

Zeit Temperatur Niederschläge Wind Luftdruck Luftfeuchtigkeit
00:00 +6°C° 0 mm 1 m/S 693 mmHg 78%
01:00 +5°C° 0 mm 1 m/S 693 mmHg 77%
02:00 +6°C° 0 mm 1 m/S 694 mmHg 76%
03:00 +6°C° 0 mm 1 m/S 694 mmHg 75%
04:00 +5°C° 0 mm 0 m/S 694 mmHg 73%
05:00 +5°C° 0 mm 0 m/S 694 mmHg 71%
06:00 +6°C° 0 mm 0 m/S 695 mmHg 70%
07:00 +6°C° 0 mm 0 m/S 695 mmHg 68%
08:00 +9°C° 0 mm 1 m/S 695 mmHg 63%
09:00 +10°C° 0 mm 1 m/S 696 mmHg 58%
10:00 +12°C° 0 mm 1 m/S 696 mmHg 53%
11:00 +12°C° 0 mm 1 m/S 696 mmHg 52%
12:00 +13°C° 0 mm 2 m/S 696 mmHg 51%
13:00 +13°C° 0 mm 2 m/S 695 mmHg 50%
14:00 +13°C° 0 mm 2 m/S 695 mmHg 51%
15:00 +13°C° 0 mm 2 m/S 695 mmHg 52%
16:00 +13°C° 0 mm 2 m/S 695 mmHg 53%
17:00 +12°C° 0 mm 1 m/S 695 mmHg 57%
18:00 +11°C° 0 mm 1 m/S 695 mmHg 61%
19:00 +11°C° 0 mm 1 m/S 695 mmHg 66%
20:00 +10°C° 0 mm 1 m/S 695 mmHg 66%
21:00 +10°C° 0 mm 1 m/S 695 mmHg 66%
22:00 +9°C° 0 mm 1 m/S 694 mmHg 66%
23:00 +9°C° 0 mm 1 m/S 694 mmHg 64%

Morgen, 9 März, Dienstag

Zeit Temperatur Niederschläge Wind Luftdruck Luftfeuchtigkeit
00:00 +9°C° 0 mm 1 m/S 693 mmHg 62%
01:00 +9°C° 0 mm 1 m/S 693 mmHg 60%
02:00 +9°C° 0 mm 1 m/S 693 mmHg 58%
03:00 +9°C° 0 mm 1 m/S 692 mmHg 55%
04:00 +9°C° 0 mm 1 m/S 692 mmHg 53%
05:00 +9°C° 0 mm 1 m/S 692 mmHg 52%
06:00 +10°C° 0 mm 1 m/S 692 mmHg 50%
07:00 +10°C° 0 mm 1 m/S 691 mmHg 49%
08:00 +12°C° 0 mm 1 m/S 691 mmHg 44%
09:00 +14°C° 0 mm 1 m/S 691 mmHg 39%
10:00 +15°C° 0 mm 1 m/S 692 mmHg 34%
11:00 +18°C° 0 mm 1 m/S 691 mmHg 32%
12:00 +19°C° 0 mm 1 m/S 691 mmHg 30%
13:00 +19°C° 0 mm 2 m/S 690 mmHg 28%
14:00 +19°C° 0 mm 2 m/S 690 mmHg 30%
15:00 +19°C° 0 mm 2 m/S 690 mmHg 33%
16:00 +18°C° 0 mm 2 m/S 689 mmHg 36%
17:00 +17°C° 0 mm 2 m/S 689 mmHg 38%
18:00 +16°C° 0 mm 3 m/S 689 mmHg 40%
19:00 +14°C° 0 mm 3 m/S 689 mmHg 42%
20:00 +14°C° 0 mm 3 m/S 689 mmHg 44%
21:00 +13°C° 0 mm 3 m/S 689 mmHg 46%
22:00 +13°C° 0 mm 2 m/S 689 mmHg 48%
23:00 +13°C° 0 mm 2 m/S 689 mmHg 51%

übermorgen, 10 März, Mittwoch

Zeit Temperatur Niederschläge Wind Luftdruck Luftfeuchtigkeit
00:00 +12°C° 0 mm 2 m/S 689 mmHg 54%
01:00 +12°C° 0 mm 2 m/S 689 mmHg 57%
02:00 +11°C° 0.2 mm 3 m/S 689 mmHg 58%
03:00 +11°C° 0.2 mm 3 m/S 689 mmHg 58%
04:00 +11°C° 0.2 mm 3 m/S 690 mmHg 58%
05:00 +11°C° 0.2 mm 3 m/S 690 mmHg 60%
06:00 +12°C° 0.2 mm 2 m/S 690 mmHg 62%
07:00 +12°C° 0.2 mm 2 m/S 691 mmHg 64%
08:00 +13°C° 0.1 mm 2 m/S 691 mmHg 59%
09:00 +14°C° 0.1 mm 2 m/S 692 mmHg 54%
10:00 +16°C° 0.1 mm 3 m/S 692 mmHg 49%
11:00 +16°C° 0.1 mm 3 m/S 692 mmHg 49%
12:00 +15°C° 0.1 mm 4 m/S 692 mmHg 49%
13:00 +15°C° 0.1 mm 4 m/S 692 mmHg 49%
14:00 +14°C° 0.4 mm 4 m/S 692 mmHg 54%
15:00 +13°C° 0.4 mm 4 m/S 692 mmHg 59%
16:00 +12°C° 0.4 mm 4 m/S 692 mmHg 64%
17:00 +11°C° 0.2 mm 3 m/S 692 mmHg 70%
18:00 +9°C° 0.2 mm 3 m/S 692 mmHg 76%
19:00 +8°C° 0.2 mm 2 m/S 692 mmHg 82%
20:00 +8°C° 0.1 mm 2 m/S 692 mmHg 83%
21:00 +7°C° 0.1 mm 2 m/S 692 mmHg 84%
22:00 +7°C° 0.1 mm 2 m/S 692 mmHg 85%
23:00 +7°C° 2.1 mm 2 m/S 693 mmHg 88%

11 März, Donnerstag

Zeit Temperatur Niederschläge Wind Luftdruck Luftfeuchtigkeit
00:00 +5°C° 2.1 mm 3 m/S 693 mmHg 92%
01:00 +4°C° 2.1 mm 3 m/S 693 mmHg 95%
02:00 +4°C° 1.9 mm 3 m/S 694 mmHg 95%
03:00 +5°C° 1.9 mm 2 m/S 694 mmHg 94%
04:00 +5°C° 1.9 mm 2 m/S 695 mmHg 94%
05:00 +5°C° 0.2 mm 2 m/S 695 mmHg 93%
06:00 +6°C° 0.2 mm 1 m/S 695 mmHg 92%
07:00 +6°C° 0.2 mm 1 m/S 696 mmHg 91%
08:00 +6°C° 0 mm 1 m/S 696 mmHg 88%
09:00 +7°C° 0 mm 1 m/S 696 mmHg 85%
10:00 +6°C° 0 mm 0 m/S 696 mmHg 82%
11:00 +7°C° 0 mm 0 m/S 695 mmHg 75%
12:00 +9°C° 0 mm 0 m/S 695 mmHg 67%
13:00 +10°C° 0 mm 0 m/S 695 mmHg 60%
14:00 +11°C° 0 mm 1 m/S 694 mmHg 59%
15:00 +12°C° 0 mm 2 m/S 694 mmHg 58%
16:00 +12°C° 0 mm 2 m/S 693 mmHg 58%
17:00 +10°C° 0 mm 2 m/S 693 mmHg 66%
18:00 +8°C° 0 mm 2 m/S 693 mmHg 74%
19:00 +7°C° 0 mm 2 m/S 692 mmHg 82%
20:00 +7°C° 0 mm 2 m/S 692 mmHg 79%
21:00 +7°C° 0 mm 2 m/S 692 mmHg 76%
22:00 +7°C° 0 mm 2 m/S 691 mmHg 73%
23:00 +6°C° 0 mm 2 m/S 691 mmHg 70%

12 März, Freitag

Zeit Temperatur Niederschläge Wind Luftdruck Luftfeuchtigkeit
00:00 +6°C° 0 mm 2 m/S 690 mmHg 66%
01:00 +6°C° 0 mm 2 m/S 690 mmHg 62%
02:00 +6°C° 0 mm 2 m/S 689 mmHg 57%
03:00 +6°C° 0 mm 2 m/S 688 mmHg 52%
04:00 +5°C° 0 mm 3 m/S 688 mmHg 48%
05:00 +7°C° 0 mm 3 m/S 687 mmHg 44%
06:00 +8°C° 0 mm 3 m/S 687 mmHg 41%
07:00 +8°C° 0 mm 3 m/S 687 mmHg 38%
08:00 +11°C° 0 mm 3 m/S 687 mmHg 34%
09:00 +14°C° 0 mm 3 m/S 687 mmHg 31%
10:00 +18°C° 0 mm 3 m/S 687 mmHg 27%
11:00 +19°C° 0 mm 4 m/S 687 mmHg 27%
12:00 +20°C° 0 mm 6 m/S 687 mmHg 26%
13:00 +21°C° 0 mm 8 m/S 687 mmHg 26%
14:00 +20°C° 0 mm 7 m/S 687 mmHg 28%
15:00 +20°C° 0 mm 6 m/S 686 mmHg 31%
16:00 +19°C° 0 mm 6 m/S 686 mmHg 34%
17:00 +16°C° 0 mm 5 m/S 686 mmHg 37%
18:00 +15°C° 0 mm 4 m/S 686 mmHg 41%
19:00 +14°C° 0 mm 3 m/S 686 mmHg 44%
20:00 +13°C° 0.1 mm 3 m/S 686 mmHg 53%
21:00 +13°C° 0.1 mm 2 m/S 686 mmHg 63%
22:00 +12°C° 0.1 mm 2 m/S 686 mmHg 72%
23:00 +12°C° 0 mm 2 m/S 685 mmHg 75%

13 März, Samstag

Zeit Temperatur Niederschläge Wind Luftdruck Luftfeuchtigkeit
00:00 +10°C° 0 mm 2 m/S 685 mmHg 79%
01:00 +11°C° 0 mm 1 m/S 684 mmHg 82%
02:00 +11°C° 0.1 mm 1 m/S 685 mmHg 86%
03:00 +11°C° 0.1 mm 1 m/S 685 mmHg 89%
04:00 +11°C° 0.1 mm 1 m/S 685 mmHg 92%
05:00 +9°C° 1.9 mm 2 m/S 686 mmHg 92%
06:00 +9°C° 1.9 mm 3 m/S 686 mmHg 93%
07:00 +7°C° 1.9 mm 4 m/S 687 mmHg 94%
08:00 +6°C° 2.1 mm 5 m/S 688 mmHg 92%
09:00 +5°C° 2.1 mm 5 m/S 689 mmHg 90%
10:00 +3°C° 2.1 mm 5 m/S 690 mmHg 89%
11:00 +3°C° 0.2 mm 5 m/S 691 mmHg 87%
12:00 +2°C° 0.2 mm 5 m/S 691 mmHg 85%
13:00 +1°C° 0.2 mm 6 m/S 691 mmHg 84%
14:00 0°C° 2.2 mm 5 m/S 692 mmHg 86%
15:00 -1°C° 2.2 mm 5 m/S 692 mmHg 88%
16:00 -2°C° 2.2 mm 5 m/S 692 mmHg 90%
17:00 -4°C° 1.2 mm 5 m/S 693 mmHg 90%
18:00 -3°C° 1.2 mm 4 m/S 694 mmHg 90%
19:00 -4°C° 1.2 mm 4 m/S 695 mmHg 90%
20:00 -4°C° 0.4 mm 3 m/S 696 mmHg 89%
21:00 -4°C° 0.4 mm 3 m/S 697 mmHg 87%
22:00 -4°C° 0.4 mm 3 m/S 698 mmHg 86%
23:00 -5°C° 0.1 mm 3 m/S 698 mmHg 85%
Mehr zeigen

Wir brauchen deine Erlaubnis

Meteoprog und unser Service Anbieter werden persönliche Daten aufbewahren, so wie Cookies, Geräte Bezeichnung oder ähnliche Technologien von deinem Gerät und Prozess, so wie Persönliche Daten Inhalte und Werbungen, genauso wie social Media und den Verkehr zu analysieren.

  • Aufbewahrung und/oder Zugang zu deiner Geräte Informationen.

    Cookies, Geräte Bezeichnung oder andere Informationen, können aufbewahrt oder Zugang zu deinem Gerät erhalten, für den Grund, der oben angegeben wird.

  • Personalisierte Werbung und Inhalte, Messungen, Einblick in das Publikum und Produkt Entwicklung.

    Werbungen und Inhalte können personalisiert werden, basierend auf ein Profil. Mehr Daten können besser personalisierte Werbungen und Inhalte hinzufügen. Werbung und Inhalte können gezeigt und gemessen werden. Einblicke über das Publikum, welche die Werbung gesehen haben und den Inhalt, können abgeleitet werden. So wie Daten können genutzt werden, um es zu verbessern oder die Benutzer Erfahrung zu verbessern das System und die Software.

Wenn du “Ich stimme zu” klickst, erlaubst du uns, die Cookies zu benutzen die Geräte Bezeichnung, den Web oder ähnliche Technologien zu benutzen. Deine Settings, können in deinem Gerät bei deinem Browser geändert werden.

Für den bestimmten Zweck, berechtigten Interessen beruhen darauf, mehr als auf den Inhalt. Du kannst mehr darüber in unseren Privaten und Cookie Politik lesen.